Location: Klein M�hlingen
(51.9472°N, 11.7453°E)
Time: 05:08:13
(UTC+00:00)

Nauka - Pass Details

Date: 28 September 2021
Orbit: 417 x 423 km, 51.6° (Epoch: 26 October)

Event Time Altitude Azimuth Distance (km) Brightness Sun altitude
Rises 17:24:03 0° 269° (W) 2,364 ? -5.0°
Reaches altitude 10° 17:26:09 10° 270° (W) 1,500 ? -5.3°
Maximum altitude 17:29:32 88° 180° (S) 425 ? -5.8°
Drops below altitude 10° 17:32:47 11° 92° (E) 1,454 ? -6.3°
Enters shadow 17:33:12 - 92° (E) 1,623 ? -6.4°
